Simultaneous Nadir Overpasses (SNOs) Predictions

Prediction of SNOs between NOAA-20 and METOP-B Satellite Orbit:

Table of predicted SNOs for the next 14.0 days since TLE Epoch: 2/15/2019
Index Date (NOAA-20) Time (NOAA-20) Lat,Lon (NOAA-20) SZA (NOAA-20 ) Date (METOP-B) Time (METOP-B) Lat,Lon (METOP-B) SZA (METOP-B ) Distance(km) Time Diff (sec)
1 02/27/2019 14:23:17 73.46, -45.53 82.09 02/27/2019 14:24:24 73.43, -42.98 81.90 80.75 67
2 02/27/2019 15:14:00 -73.40, 121.92 97.99 02/27/2019 15:15:08 -73.33, 124.12 98.21 70.66 68
3 02/27/2019 16:04:41 73.16, -70.24 81.73 02/27/2019 16:05:52 73.11, -69.03 81.59 39.26 71
4 02/27/2019 16:55:24 -73.11, 97.20 98.35 02/27/2019 16:56:36 -73.01, 98.08 98.51 30.41 72
5 02/27/2019 17:46:05 72.86, -94.96 81.37 02/27/2019 17:47:19 72.84, -94.95 81.33 2.86 74
6 02/27/2019 18:36:49 -72.86, 72.36 98.65 02/27/2019 18:38:01 -72.84, 72.38 98.69 2.11 72
7 02/27/2019 19:27:34 72.82,-120.24 81.29 02/27/2019 19:28:41 72.82,-120.33 81.28 3.06 67
8 02/27/2019 20:18:18 -72.81, 47.09 98.73 02/27/2019 20:19:23 -72.82, 47.00 98.73 3.02 65
9 02/27/2019 21:09:04 72.82,-145.62 81.27 02/27/2019 21:10:02 72.85,-145.60 81.29 3.57 58
10 02/27/2019 21:59:48 -72.82, 21.70 98.75 02/27/2019 22:00:45 -72.80, 21.62 98.77 3.01 57
11 02/27/2019 22:50:34 72.82,-171.00 81.25 02/27/2019 22:51:24 72.83,-170.98 81.24 1.22 50
12 02/27/2019 23:41:18 -72.82, -3.68 98.78 02/27/2019 23:42:06 -72.84, -3.65 98.77 2.07 48
13 02/28/2019 00:32:04 72.83, 163.62 81.22 02/28/2019 00:32:46 72.81, 163.64 81.20 1.50 42
14 02/28/2019 01:22:48 -72.82, -29.06 98.80 02/28/2019 01:23:28 -72.82, -29.03 98.82 1.03 40
15 02/28/2019 02:13:33 72.78, 138.34 81.14 02/28/2019 02:14:08 72.79, 138.26 81.16 3.34 35
16 02/28/2019 03:04:18 -72.83, -54.44 98.82 02/28/2019 03:04:50 -72.80, -54.41 98.86 3.12 32
17 02/28/2019 03:55:03 72.78, 112.96 81.12 02/28/2019 03:55:30 72.78, 112.88 81.11 2.82 27
18 02/28/2019 04:45:47 -72.78, -79.71 98.90 02/28/2019 04:46:12 -72.78, -79.79 98.90 2.49 25
19 02/28/2019 05:36:33 72.78, 87.58 81.10 02/28/2019 05:36:51 72.81, 87.60 81.11 2.68 18
20 02/28/2019 06:27:16 -72.78,-105.10 98.93 02/28/2019 06:27:33 -72.76,-105.17 98.95 3.30 17
21 02/28/2019 07:18:02 72.79, 62.20 81.07 02/28/2019 07:18:12 72.79, 62.23 81.07 0.87 10
22 02/28/2019 08:08:46 -72.78,-130.48 98.95 02/28/2019 08:08:54 -72.79,-130.44 98.94 1.46 8
23 02/28/2019 08:59:32 72.79, 36.82 81.05 02/28/2019 08:59:34 72.77, 36.85 81.03 2.53 2
24 02/28/2019 09:50:16 -72.79,-155.86 98.97 02/28/2019 09:50:16 -72.77,-155.82 98.99 1.92 0
25 02/28/2019 10:41:01 72.74, 11.54 80.97 02/28/2019 10:40:56 72.75, 11.47 80.98 2.62 5
26 02/28/2019 11:31:45 -72.74, 178.87 99.05 02/28/2019 11:31:38 -72.75, 178.80 99.03 2.77 7
27 02/28/2019 12:22:31 72.75, -13.84 80.95 02/28/2019 12:22:18 72.73, -13.91 80.94 2.91 13
28 02/28/2019 13:13:15 -72.74, 153.49 99.07 02/28/2019 13:13:00 -72.74, 153.42 99.07 2.29 15
29 02/28/2019 14:04:01 72.75, -39.22 80.93 02/28/2019 14:03:39 72.76, -39.19 80.94 1.93 22
30 02/28/2019 14:54:45 -72.75, 128.11 99.10 02/28/2019 14:54:21 -72.77, 128.15 99.07 2.77 24
31 02/28/2019 15:45:31 72.75, -64.60 80.90 02/28/2019 15:45:01 72.75, -64.56 80.90 1.49 30
32 02/28/2019 16:36:15 -72.75, 102.72 99.12 02/28/2019 16:35:43 -72.75, 102.77 99.12 1.45 32
33 02/28/2019 17:27:00 72.71, -89.88 80.82 02/28/2019 17:26:23 72.73, -89.94 80.86 3.18 37
34 02/28/2019 18:17:45 -72.75, 77.34 99.14 02/28/2019 18:17:05 -72.73, 77.39 99.16 2.92 40
35 02/28/2019 19:08:30 72.71,-115.26 80.80 02/28/2019 19:07:45 72.71,-115.32 80.81 2.15 45
36 02/28/2019 19:59:14 -72.71, 52.07 99.22 02/28/2019 19:58:27 -72.71, 52.01 99.20 1.99 47
37 02/28/2019 20:50:00 72.71,-140.64 80.78 02/28/2019 20:49:06 72.74,-140.60 80.81 3.34 54
38 02/28/2019 21:40:44 -72.71, 26.69 99.25 02/28/2019 21:39:49 -72.69, 26.63 99.25 2.51 55
39 02/28/2019 22:31:30 72.72,-166.02 80.75 02/28/2019 22:30:28 72.72,-165.97 80.77 1.58 62
40 02/28/2019 23:22:14 -72.71, 1.31 99.27 02/28/2019 23:21:10 -72.72, 1.36 99.24 2.24 64
41 03/01/2019 00:13:00 72.72, 168.60 80.73 03/01/2019 00:11:50 72.70, 168.65 80.73 2.44 70
42 03/01/2019 01:03:44 -72.71, -24.08 99.29 03/01/2019 01:02:32 -72.71, -24.02 99.29 2.08 72
43 03/01/2019 01:54:27 72.57, 143.53 80.54 03/01/2019 01:53:14 72.58, 143.06 80.60 15.78 73
44 03/01/2019 02:45:10 -72.52, -49.04 99.54 03/01/2019 02:43:57 -72.53, -49.71 99.46 22.41 73
45 03/01/2019 03:35:51 72.27, 118.76 80.18 03/01/2019 03:34:41 72.31, 117.17 80.33 54.01 70
46 03/01/2019 04:26:34 -72.21, -73.82 99.90 03/01/2019 04:25:25 -72.21, -75.69 99.77 63.73 69
47 03/01/2019 05:17:15 71.96, 93.97 79.82 03/01/2019 05:16:09 71.98, 91.20 80.03 95.43 66




NCC Satellite Simultaneous Nadir Overpasses (SNOs) Prediction Service
